QPF
0.00 0.00 0.00 0.00 0.00 0.00 0.00 0.00 0.00 0.00 0.00 0.00 0.00 0.00 0.00 0.00 0.00 0.00 0.00 0.00 0.00 0.01 0.02 0.02 0.03 0.03 0.03 0.04 0.03 0.02 0.02 0.02 0.03 0.03 0.02 0.02 0.02 0.03 0.02 0.02 0.02 0.02 0.02 0.02
0.00 0.00 0.00 0.00 0.00 0.00 0.00 0.00 0.00 0.00 0.00 0.00 0.00 0.00 0.00 0.00 0.00 0.00 0.00 0.01 0.02 0.02 0.02 0.02 0.02 0.02 0.02 0.02 0.02 0.03 0.03 0.03 0.03 0.03 0.03 0.03 0.03 0.03 0.03 0.02 0.02 0.02 0.02 0.02
0.00 0.00 0.00 0.00 0.00 0.00 0.00 0.00 0.00 0.00 0.00 0.00 0.00 0.00 0.00 0.00 0.00 0.00 0.01 0.01 0.01 0.02 0.01 0.01 0.01 0.02 0.02 0.02 0.03 0.03 0.03 0.03 0.02 0.02 0.02 0.02 0.02 0.02 0.02 0.02 0.02 0.02 0.01 0.02
0.00 0.00 0.00 0.00 0.00 0.00 0.00 0.00 0.00 0.00 0.00 0.00 0.00 0.00 0.00 0.00 0.01 0.01 0.01 0.00 0.00 0.01 0.01 0.03 0.03 0.03 0.02 0.02 0.02 0.03 0.03 0.02 0.02 0.02 0.02 0.02 0.01 0.01 0.01 0.02 0.02 0.02 0.01 0.01
0.00 0.00 0.00 0.00 0.00 0.00 0.00 0.00 0.00 0.00 0.00 0.00 0.00 0.00 0.00 0.00 0.00 0.00 0.00 0.00 0.00 0.01 0.01 0.02 0.02 0.02 0.02 0.01 0.01 0.01 0.01 0.02 0.01 0.01 0.02 0.02 0.01 0.01 0.01 0.02 0.02 0.02 0.02 0.02
0.00 0.00 0.01 0.00 0.00 0.00 0.00 0.01 0.00 0.00 0.00 0.00 0.00 0.00 0.00 0.00 0.00 0.00 0.00 0.00 0.00 0.01 0.01 0.01 0.01 0.01 0.01 0.01 0.01 0.01 0.01 0.01 0.01 0.01 0.01 0.01 0.01 0.01 0.01 0.01 0.02 0.03 0.03 0.04
0.01 0.01 0.00 0.00 0.00 0.00 0.01 0.01 0.00 0.00 0.00 0.00 0.00 0.01 0.00 0.00 0.00 0.00 0.00 0.00 0.00 0.00 0.01 0.01 0.01 0.01 0.01 0.01 0.01 0.01 0.01 0.01 0.01 0.01 0.01 0.01 0.01 0.01 0.01 0.01 0.02 0.04 0.04 0.05
0.01 0.01 0.01 0.00 0.00 0.00 0.01 0.01 0.00 0.00 0.01 0.00 0.00 0.00 0.00 0.00 0.00 0.00 0.00 0.00 0.00 0.00 0.00 0.01 0.01 0.02 0.02 0.02 0.02 0.03 0.03 0.02 0.01 0.02 0.02 0.02 0.03 0.03 0.03 0.03 0.02 0.03 0.03 0.05
0.01 0.01 0.01 0.01 0.00 0.00 0.01 0.00 0.00 0.00 0.00 0.00 0.00 0.00 0.00 0.00 0.01 0.01 0.00 0.00 0.00 0.01 0.01 0.01 0.01 0.02 0.02 0.03 0.03 0.04 0.04 0.04 0.04 0.04 0.04 0.04 0.04 0.04 0.03 0.03 0.02 0.02 0.03 0.04
0.01 0.01 0.01 0.01 0.00 0.00 0.00 0.00 0.00 0.01 0.00 0.01 0.01 0.01 0.01 0.01 0.01 0.00 0.00 0.00 0.01 0.01 0.01 0.01 0.01 0.01 0.02 0.02 0.03 0.04 0.05 0.05 0.05 0.05 0.06 0.07 0.06 0.06 0.05 0.04 0.05 0.05 0.05 0.05
0.02 0.01 0.01 0.01 0.01 0.01 0.01 0.01 0.01 0.01 0.01 0.01 0.01 0.01 0.01 0.01 0.01 0.01 0.00 0.00 0.00 0.00 0.00 0.00 0.01 0.01 0.01 0.01 0.03 0.05 0.06 0.06 0.06 0.06 0.07 0.07 0.06 0.06 0.06 0.06 0.07 0.08 0.08 0.08
0.02 0.01 0.01 0.01 0.01 0.02 0.02 0.01 0.01 0.01 0.01 0.01 0.01 0.01 0.01 0.01 0.01 0.01 0.01 0.01 0.01 0.01 0.01 0.01 0.01 0.01 0.01 0.02 0.03 0.04 0.04 0.05 0.05 0.05 0.05 0.05 0.05 0.05 0.05 0.04 0.04 0.04 0.05 0.06
0.01 0.01 0.01 0.01 0.01 0.01 0.01 0.01 0.01 0.01 0.01 0.01 0.02 0.02 0.02 0.02 0.01 0.01 0.01 0.01 0.01 0.01 0.01 0.01 0.02 0.02 0.02 0.03 0.03 0.04 0.03 0.04 0.06 0.07 0.07 0.06 0.05 0.04 0.05 0.05 0.04 0.04 0.04 0.04
0.01 0.01 0.01 0.01 0.01 0.01 0.01 0.01 0.01 0.00 0.01 0.03 0.04 0.04 0.03 0.02 0.01 0.01 0.02 0.02 0.02 0.01 0.02 0.02 0.03 0.02 0.02 0.03 0.04 0.04 0.04 0.04 0.04 0.04 0.05 0.05 0.05 0.06 0.06 0.06 0.05 0.04 0.03 0.03
0.01 0.01 0.01 0.01 0.01 0.01 0.01 0.01 0.00 0.00 0.01 0.03 0.04 0.04 0.02 0.01 0.02 0.03 0.04 0.03 0.03 0.02 0.02 0.02 0.02 0.02 0.02 0.03 0.04 0.05 0.04 0.04 0.04 0.04 0.04 0.04 0.04 0.04 0.04 0.04 0.03 0.03 0.04 0.05
0.01 0.01 0.01 0.00 0.01 0.01 0.01 0.01 0.00 0.01 0.01 0.03 0.04 0.02 0.01 0.01 0.03 0.06 0.06 0.04 0.03 0.02 0.02 0.01 0.01 0.01 0.01 0.02 0.03 0.03 0.04 0.06 0.06 0.06 0.05 0.05 0.05 0.04 0.05 0.05 0.04 0.04 0.04 0.06
0.01 0.01 0.00 0.00 0.01 0.01 0.01 0.00 0.00 0.01 0.02 0.08 0.05 0.01 0.00 0.01 0.01 0.02 0.02 0.02 0.03 0.02 0.01 0.01 0.01 0.01 0.01 0.02 0.03 0.04 0.05 0.06 0.06 0.06 0.06 0.05 0.04 0.04 0.05 0.06 0.05 0.05 0.04 0.04
0.01 0.01 0.00 0.01 0.01 0.01 0.01 0.01 0.01 0.01 0.04 0.10 0.05 0.01 0.00 0.01 0.01 0.01 0.01 0.01 0.01 0.01 0.01 0.01 0.01 0.01 0.01 0.01 0.02 0.02 0.04 0.07 0.06 0.05 0.04 0.03 0.02 0.02 0.03 0.03 0.04 0.06 0.06 0.04
0.01 0.00 0.01 0.01 0.01 0.01 0.01 0.01 0.01 0.01 0.04 0.07 0.03 0.01 0.01 0.01 0.01 0.01 0.01 0.01 0.01 0.02 0.01 0.01 0.01 0.01 0.01 0.01 0.02 0.02 0.02 0.03 0.04 0.04 0.03 0.02 0.02 0.04 0.05 0.05 0.04 0.06 0.07 0.06
0.00 0.00 0.00 0.01 0.01 0.01 0.01 0.01 0.01 0.01 0.01 0.03 0.02 0.02 0.01 0.01 0.01 0.01 0.02 0.02 0.02 0.02 0.01 0.01 0.01 0.01 0.01 0.01 0.01 0.01 0.01 0.02 0.03 0.03 0.03 0.03 0.04 0.07 0.09 0.07 0.04 0.05 0.05 0.04
0.01 0.01 0.01 0.01 0.01 0.01 0.01 0.01 0.01 0.01 0.01 0.01 0.01 0.01 0.01 0.01 0.01 0.01 0.02 0.03 0.02 0.01 0.01 0.01 0.01 0.01 0.01 0.01 0.01 0.01 0.02 0.02 0.03 0.04 0.05 0.05 0.05 0.05 0.06 0.07 0.04 0.04 0.05 0.05
0.02 0.01 0.01 0.01 0.01 0.01 0.01 0.02 0.02 0.03 0.03 0.01 0.01 0.01 0.01 0.01 0.01 0.01 0.01 0.02 0.02 0.02 0.02 0.02 0.01 0.01 0.01 0.01 0.01 0.02 0.02 0.03 0.04 0.04 0.05 0.05 0.05 0.04 0.04 0.05 0.05 0.04 0.04 0.05
0.02 0.02 0.02 0.01 0.02 0.01 0.02 0.02 0.03 0.03 0.02 0.02 0.01 0.01 0.01 0.01 0.01 0.01 0.01 0.01 0.01 0.01 0.01 0.02 0.02 0.01 0.01 0.01 0.01 0.01 0.02 0.02 0.03 0.03 0.04 0.04 0.03 0.03 0.03 0.03 0.03 0.03 0.03 0.04
0.02 0.02 0.02 0.02 0.02 0.03 0.03 0.03 0.02 0.02 0.01 0.01 0.01 0.01 0.02 0.02 0.02 0.01 0.01 0.01 0.01 0.01 0.01 0.01 0.01 0.02 0.02 0.02 0.02 0.02 0.02 0.02 0.02 0.03 0.03 0.03 0.03 0.02 0.03 0.03 0.02 0.02 0.02 0.03
0.03 0.03 0.02 0.03 0.03 0.03 0.04 0.03 0.02 0.02 0.02 0.01 0.01 0.02 0.02 0.02 0.02 0.02 0.01 0.01 0.02 0.02 0.01 0.01 0.01 0.01 0.01 0.02 0.02 0.03 0.03 0.03 0.02 0.02 0.03 0.02 0.02 0.02 0.02 0.02 0.02 0.02 0.02 0.02
0.03 0.03 0.03 0.03 0.03 0.02 0.03 0.03 0.02 0.02 0.02 0.02 0.02 0.02 0.01 0.01 0.01 0.01 0.02 0.01 0.02 0.02 0.02 0.01 0.01 0.01 0.01 0.01 0.02 0.02 0.03 0.03 0.02 0.02 0.02 0.02 0.02 0.01 0.01 0.01 0.01 0.02 0.02 0.02
0.03 0.03 0.03 0.02 0.02 0.02 0.02 0.03 0.03 0.03 0.03 0.03 0.03 0.03 0.02 0.02 0.02 0.02 0.02 0.02 0.02 0.02 0.02 0.01 0.01 0.01 0.02 0.02 0.02 0.02 0.02 0.02 0.01 0.01 0.01 0.01 0.01 0.01 0.01 0.01 0.01 0.01 0.02 0.03
MSLP
1004.46 1004.82 1005.18 1005.50 1005.74 1005.87 1005.85 1005.67 1005.33 1004.85 1004.26 1003.63 1003.03 1002.53 1002.20 1002.07 1002.15 1002.44 1002.91 1003.50 1004.15 1004.80 1005.41 1005.94 1006.37 1006.72 1006.99 1007.21 1007.39 1007.55 1007.67 1007.77 1007.81 1007.79 1007.66 1007.42 1007.07 1006.61 1006.07 1005.47 1004.84 1004.23 1003.66 1003.16
1004.29 1004.54 1004.75 1004.89 1004.93 1004.87 1004.69 1004.40 1004.01 1003.55 1003.04 1002.55 1002.13 1001.82 1001.67 1001.70 1001.91 1002.29 1002.82 1003.45 1004.13 1004.81 1005.46 1006.03 1006.53 1006.94 1007.27 1007.54 1007.75 1007.92 1008.04 1008.10 1008.10 1008.01 1007.83 1007.53 1007.12 1006.60 1005.99 1005.32 1004.61 1003.90 1003.23 1002.61
1004.15 1004.30 1004.37 1004.34 1004.20 1003.96 1003.64 1003.24 1002.80 1002.35 1001.92 1001.55 1001.28 1001.13 1001.14 1001.30 1001.63 1002.10 1002.68 1003.35 1004.06 1004.76 1005.44 1006.07 1006.62 1007.09 1007.48 1007.80 1008.05 1008.23 1008.34 1008.38 1008.34 1008.20 1007.96 1007.62 1007.16 1006.60 1005.95 1005.23 1004.47 1003.69 1002.93 1002.21
1004.00 1004.08 1004.04 1003.87 1003.59 1003.20 1002.76 1002.27 1001.79 1001.35 1000.97 1000.69 1000.54 1000.54 1000.67 1000.96 1001.38 1001.92 1002.56 1003.26 1003.99 1004.72 1005.43 1006.10 1006.69 1007.22 1007.66 1008.01 1008.29 1008.47 1008.57 1008.59 1008.51 1008.34 1008.07 1007.70 1007.23 1006.66 1006.00 1005.28 1004.50 1003.69 1002.87 1002.09
1003.83 1003.85 1003.73 1003.47 1003.08 1002.60 1002.07 1001.52 1001.01 1000.58 1000.25 1000.05 1000.00 1000.10 1000.35 1000.74 1001.25 1001.85 1002.53 1003.26 1004.01 1004.76 1005.49 1006.18 1006.80 1007.35 1007.82 1008.19 1008.47 1008.65 1008.74 1008.73 1008.63 1008.44 1008.17 1007.80 1007.35 1006.82 1006.21 1005.52 1004.78 1003.99 1003.17 1002.37
1003.61 1003.60 1003.44 1003.13 1002.69 1002.15 1001.57 1001.00 1000.48 1000.07 999.78 999.65 999.69 999.89 1000.23 1000.70 1001.27 1001.93 1002.65 1003.40 1004.17 1004.93 1005.66 1006.35 1006.98 1007.53 1007.99 1008.36 1008.63 1008.79 1008.86 1008.84 1008.73 1008.55 1008.29 1007.97 1007.58 1007.13 1006.60 1006.01 1005.36 1004.64 1003.88 1003.10
1003.35 1003.32 1003.15 1002.83 1002.38 1001.84 1001.25 1000.69 1000.19 999.81 999.57 999.50 999.61 999.88 1000.30 1000.84 1001.48 1002.18 1002.93 1003.70 1004.47 1005.22 1005.95 1006.62 1007.23 1007.76 1008.20 1008.54 1008.78 1008.92 1008.97 1008.94 1008.83 1008.68 1008.47 1008.22 1007.93 1007.60 1007.21 1006.75 1006.23 1005.63 1004.97 1004.27
1003.04 1003.02 1002.87 1002.57 1002.14 1001.63 1001.08 1000.55 1000.10 999.76 999.58 999.57 999.74 1000.08 1000.56 1001.15 1001.83 1002.57 1003.34 1004.12 1004.89 1005.63 1006.33 1006.97 1007.54 1008.04 1008.44 1008.74 1008.94 1009.06 1009.09 1009.06 1008.98 1008.86 1008.72 1008.57 1008.40 1008.20 1007.97 1007.68 1007.32 1006.88 1006.35 1005.76
1002.74 1002.73 1002.59 1002.34 1001.96 1001.51 1001.02 1000.55 1000.15 999.88 999.75 999.79 1000.02 1000.40 1000.93 1001.56 1002.28 1003.04 1003.83 1004.61 1005.37 1006.09 1006.76 1007.36 1007.89 1008.34 1008.70 1008.96 1009.13 1009.22 1009.24 1009.22 1009.17 1009.10 1009.04 1008.99 1008.94 1008.89 1008.82 1008.70 1008.51 1008.23 1007.86 1007.40
1002.47 1002.46 1002.35 1002.14 1001.82 1001.44 1001.02 1000.62 1000.29 1000.07 1000.00 1000.09 1000.36 1000.78 1001.33 1002.00 1002.73 1003.51 1004.31 1005.09 1005.83 1006.53 1007.17 1007.74 1008.23 1008.64 1008.96 1009.19 1009.34 1009.41 1009.44 1009.43 1009.41 1009.40 1009.42 1009.46 1009.52 1009.60 1009.66 1009.69 1009.66 1009.54 1009.32 1009.00
1002.26 1002.25 1002.16 1001.98 1001.72 1001.40 1001.05 1000.72 1000.46 1000.29 1000.27 1000.40 1000.69 1001.13 1001.71 1002.38 1003.13 1003.91 1004.70 1005.48 1006.22 1006.90 1007.52 1008.07 1008.53 1008.91 1009.21 1009.42 1009.56 1009.64 1009.68 1009.70 1009.71 1009.75 1009.82 1009.93 1010.07 1010.24 1010.41 1010.56 1010.65 1010.66 1010.57 1010.38
1002.14 1002.11 1002.03 1001.88 1001.66 1001.39 1001.10 1000.83 1000.61 1000.49 1000.50 1000.65 1000.96 1001.41 1001.99 1002.66 1003.40 1004.18 1004.97 1005.74 1006.47 1007.15 1007.76 1008.30 1008.76 1009.13 1009.43 1009.65 1009.80 1009.90 1009.96 1010.00 1010.05 1010.11 1010.22 1010.37 1010.56 1010.78 1011.01 1011.22 1011.39 1011.50 1011.51 1011.43
1002.10 1002.04 1001.95 1001.80 1001.61 1001.38 1001.13 1000.91 1000.73 1000.65 1000.68 1000.85 1001.16 1001.60 1002.17 1002.83 1003.56 1004.33 1005.11 1005.87 1006.60 1007.27 1007.89 1008.44 1008.91 1009.30 1009.62 1009.86 1010.04 1010.17 1010.26 1010.33 1010.40 1010.49 1010.61 1010.77 1010.97 1011.20 1011.45 1011.69 1011.90 1012.05 1012.14 1012.14
1002.08 1001.99 1001.89 1001.75 1001.57 1001.37 1001.15 1000.96 1000.82 1000.76 1000.81 1000.98 1001.29 1001.72 1002.27 1002.91 1003.62 1004.37 1005.13 1005.89 1006.62 1007.30 1007.93 1008.49 1008.99 1009.41 1009.77 1010.05 1010.27 1010.44 1010.56 1010.66 1010.75 1010.85 1010.97 1011.12 1011.31 1011.52 1011.75 1011.99 1012.21 1012.38 1012.51 1012.57
1002.04 1001.93 1001.81 1001.67 1001.51 1001.33 1001.15 1000.99 1000.89 1000.85 1000.92 1001.10 1001.40 1001.82 1002.34 1002.96 1003.64 1004.36 1005.11 1005.85 1006.57 1007.26 1007.90 1008.48 1009.01 1009.47 1009.86 1010.19 1010.46 1010.67 1010.83 1010.96 1011.07 1011.18 1011.29 1011.43 1011.59 1011.77 1011.98 1012.19 1012.39 1012.57 1012.72 1012.82
1001.90 1001.78 1001.66 1001.53 1001.39 1001.25 1001.11 1001.00 1000.93 1000.94 1001.03 1001.22 1001.52 1001.93 1002.43 1003.02 1003.67 1004.36 1005.08 1005.80 1006.50 1007.18 1007.83 1008.43 1008.97 1009.47 1009.90 1010.26 1010.57 1010.82 1011.03 1011.19 1011.32 1011.44 1011.55 1011.68 1011.82 1011.97 1012.15 1012.34 1012.53 1012.71 1012.88 1013.01
1001.62 1001.51 1001.41 1001.30 1001.21 1001.11 1001.03 1000.98 1000.97 1001.02 1001.15 1001.36 1001.67 1002.07 1002.56 1003.12 1003.73 1004.39 1005.07 1005.76 1006.45 1007.11 1007.74 1008.34 1008.90 1009.40 1009.85 1010.25 1010.59 1010.88 1011.11 1011.30 1011.46 1011.60 1011.72 1011.85 1011.98 1012.13 1012.30 1012.48 1012.67 1012.86 1013.04 1013.20
1001.18 1001.09 1001.02 1000.97 1000.93 1000.91 1000.90 1000.92 1000.98 1001.10 1001.28 1001.53 1001.86 1002.26 1002.73 1003.27 1003.85 1004.47 1005.11 1005.76 1006.41 1007.04 1007.64 1008.22 1008.76 1009.27 1009.72 1010.13 1010.49 1010.80 1011.06 1011.28 1011.46 1011.62 1011.77 1011.92 1012.07 1012.24 1012.42 1012.61 1012.81 1013.02 1013.22 1013.41
1000.61 1000.55 1000.53 1000.54 1000.57 1000.63 1000.71 1000.81 1000.96 1001.15 1001.39 1001.68 1002.04 1002.46 1002.93 1003.44 1004.00 1004.58 1005.17 1005.78 1006.37 1006.96 1007.53 1008.07 1008.58 1009.06 1009.50 1009.90 1010.26 1010.57 1010.85 1011.09 1011.31 1011.50 1011.68 1011.87 1012.05 1012.25 1012.47 1012.69 1012.92 1013.16 1013.39 1013.61
999.96 999.95 999.98 1000.05 1000.15 1000.29 1000.45 1000.65 1000.88 1001.14 1001.44 1001.79 1002.18 1002.61 1003.08 1003.59 1004.12 1004.67 1005.22 1005.78 1006.33 1006.87 1007.39 1007.89 1008.36 1008.80 1009.21 1009.58 1009.93 1010.23 1010.51 1010.77 1011.01 1011.24 1011.46 1011.69 1011.92 1012.17 1012.42 1012.69 1012.96 1013.23 1013.49 1013.74
999.34 999.36 999.43 999.55 999.72 999.92 1000.16 1000.43 1000.72 1001.05 1001.41 1001.80 1002.23 1002.68 1003.16 1003.66 1004.18 1004.70 1005.23 1005.75 1006.27 1006.76 1007.24 1007.69 1008.12 1008.51 1008.88 1009.22 1009.54 1009.83 1010.10 1010.36 1010.62 1010.87 1011.13 1011.39 1011.67 1011.97 1012.27 1012.57 1012.88 1013.18 1013.47 1013.74
998.83 998.86 998.95 999.11 999.31 999.56 999.84 1000.16 1000.51 1000.88 1001.28 1001.71 1002.16 1002.63 1003.12 1003.63 1004.14 1004.66 1005.17 1005.68 1006.16 1006.63 1007.08 1007.49 1007.88 1008.24 1008.57 1008.87 1009.15 1009.42 1009.68 1009.93 1010.19 1010.45 1010.74 1011.03 1011.35 1011.67 1012.01 1012.35 1012.68 1013.00 1013.30 1013.58
998.50 998.53 998.62 998.78 998.99 999.25 999.55 999.89 1000.26 1000.65 1001.07 1001.52 1001.99 1002.47 1002.98 1003.49 1004.01 1004.53 1005.05 1005.55 1006.03 1006.49 1006.91 1007.31 1007.67 1008.00 1008.29 1008.56 1008.82 1009.05 1009.29 1009.53 1009.78 1010.05 1010.34 1010.65 1010.98 1011.33 1011.68 1012.04 1012.39 1012.71 1013.02 1013.29
998.38 998.39 998.47 998.61 998.80 999.05 999.33 999.66 1000.02 1000.41 1000.83 1001.28 1001.75 1002.24 1002.76 1003.28 1003.82 1004.35 1004.88 1005.39 1005.88 1006.34 1006.77 1007.16 1007.50 1007.81 1008.09 1008.33 1008.55 1008.77 1008.98 1009.20 1009.43 1009.69 1009.97 1010.29 1010.62 1010.97 1011.33 1011.69 1012.03 1012.36 1012.65 1012.92
998.47 998.46 998.51 998.61 998.77 998.98 999.23 999.52 999.85 1000.21 1000.62 1001.05 1001.52 1002.01 1002.53 1003.06 1003.61 1004.16 1004.70 1005.23 1005.74 1006.21 1006.64 1007.03 1007.37 1007.67 1007.93 1008.16 1008.36 1008.55 1008.73 1008.93 1009.15 1009.39 1009.66 1009.96 1010.29 1010.63 1010.98 1011.33 1011.67 1011.99 1012.28 1012.54
998.73 998.70 998.72 998.79 998.90 999.07 999.27 999.52 999.81 1000.14 1000.51 1000.92 1001.37 1001.85 1002.36 1002.89 1003.44 1004.00 1004.56 1005.10 1005.61 1006.09 1006.53 1006.92 1007.26 1007.55 1007.80 1008.01 1008.19 1008.36 1008.53 1008.70 1008.90 1009.13 1009.38 1009.67 1009.99 1010.32 1010.66 1011.01 1011.34 1011.65 1011.94 1012.20
999.09 999.05 999.06 999.11 999.19 999.32 999.48 999.69 999.94 1000.23 1000.57 1000.95 1001.37 1001.83 1002.32 1002.84 1003.38 1003.92 1004.47 1005.00 1005.51 1005.98 1006.41 1006.79 1007.12 1007.40 1007.63 1007.83 1007.99 1008.15 1008.30 1008.46 1008.64 1008.86 1009.10 1009.39 1009.70 1010.03 1010.37 1010.72 1011.06 1011.38 1011.67 1011.95
Thickness
5781 5787 5787 5782 5781 5782 5779 5781 5777 5780 5781 5786 5788 5789 5791 5791 5791 5789 5788 5787 5785 5783 5782 5782 5780 5779 5777 5775 5774 5772 5767 5764 5761 5760 5758 5756 5753 5751 5748 5746 5745 5741 5738 5736
5769 5779 5779 5774 5778 5779 5777 5779 5779 5778 5777 5788 5789 5788 5784 5784 5783 5781 5780 5780 5779 5778 5777 5776 5775 5773 5771 5769 5767 5765 5761 5759 5757 5755 5753 5750 5749 5746 5744 5741 5739 5736 5734 5732
5759 5768 5765 5758 5772 5774 5774 5776 5775 5769 5774 5781 5777 5776 5776 5777 5776 5775 5775 5774 5773 5772 5771 5770 5770 5768 5765 5764 5761 5758 5755 5753 5752 5750 5747 5746 5744 5741 5739 5736 5734 5731 5729 5727
5755 5749 5733 5764 5781 5777 5771 5772 5774 5771 5772 5773 5771 5772 5774 5774 5771 5769 5770 5769 5767 5767 5766 5765 5764 5762 5760 5758 5754 5751 5749 5747 5746 5743 5741 5739 5737 5735 5733 5731 5729 5726 5724 5722
5747 5742 5747 5757 5765 5766 5759 5758 5767 5764 5765 5768 5769 5767 5766 5767 5766 5764 5765 5764 5763 5763 5762 5759 5757 5754 5752 5749 5747 5744 5742 5740 5739 5737 5734 5732 5730 5728 5726 5725 5723 5721 5719 5717
5736 5730 5729 5748 5762 5767 5757 5744 5760 5760 5758 5760 5759 5751 5753 5758 5759 5758 5758 5758 5757 5757 5755 5751 5748 5747 5743 5740 5738 5735 5734 5733 5732 5730 5727 5725 5723 5722 5721 5719 5717 5717 5714 5713
5729 5726 5739 5750 5757 5754 5732 5737 5752 5754 5753 5753 5748 5747 5748 5751 5750 5749 5749 5749 5749 5748 5745 5742 5741 5738 5734 5732 5729 5728 5727 5725 5724 5722 5720 5719 5717 5715 5713 5712 5711 5709 5708 5707
5724 5719 5725 5744 5744 5737 5737 5744 5745 5745 5746 5744 5742 5742 5741 5741 5739 5739 5738 5738 5738 5737 5735 5733 5732 5728 5724 5722 5722 5721 5718 5716 5714 5713 5713 5712 5709 5707 5706 5704 5703 5702 5701 5700
5725 5724 5729 5737 5736 5737 5738 5735 5736 5737 5738 5736 5733 5732 5731 5730 5730 5729 5729 5728 5728 5727 5724 5723 5722 5719 5715 5714 5714 5712 5710 5707 5706 5705 5704 5703 5701 5700 5698 5697 5699 5699 5697 5695
5713 5720 5725 5728 5730 5730 5730 5728 5730 5731 5730 5729 5726 5724 5722 5721 5720 5719 5719 5719 5719 5717 5714 5712 5711 5710 5708 5706 5705 5703 5701 5699 5698 5697 5695 5694 5693 5693 5692 5692 5691 5691 5689 5688
5704 5710 5714 5717 5719 5721 5721 5723 5723 5724 5724 5722 5719 5716 5714 5711 5710 5709 5709 5709 5708 5706 5703 5702 5702 5700 5699 5697 5695 5693 5691 5690 5690 5689 5688 5685 5685 5684 5685 5684 5682 5679 5680 5679
5699 5705 5706 5706 5712 5714 5713 5713 5715 5714 5713 5713 5712 5708 5705 5703 5701 5700 5699 5699 5698 5697 5695 5694 5693 5691 5690 5688 5686 5684 5682 5682 5683 5683 5682 5681 5679 5678 5674 5673 5670 5667 5666 5665
5698 5702 5703 5703 5705 5707 5707 5708 5708 5707 5705 5704 5702 5700 5698 5695 5693 5692 5691 5690 5688 5687 5686 5685 5684 5683 5682 5680 5677 5675 5673 5673 5674 5674 5674 5673 5672 5670 5668 5665 5661 5659 5657 5655
5693 5693 5691 5694 5696 5699 5700 5701 5701 5700 5698 5696 5694 5692 5690 5688 5686 5684 5683 5683 5682 5680 5678 5677 5676 5675 5674 5673 5670 5668 5667 5666 5665 5665 5665 5664 5664 5662 5661 5660 5659 5659 5654 5648
5686 5687 5687 5689 5690 5691 5692 5692 5690 5689 5688 5686 5686 5683 5682 5680 5678 5676 5676 5676 5674 5672 5671 5670 5668 5666 5665 5664 5662 5661 5660 5659 5657 5657 5657 5657 5656 5655 5654 5653 5653 5653 5652 5647
5679 5681 5682 5681 5681 5682 5683 5682 5680 5680 5679 5677 5676 5675 5674 5673 5671 5669 5668 5667 5664 5664 5662 5661 5659 5658 5657 5655 5654 5653 5652 5649 5647 5648 5649 5649 5648 5647 5647 5647 5646 5645 5644 5643
5668 5669 5671 5672 5673 5674 5675 5674 5673 5672 5671 5669 5668 5668 5667 5665 5663 5661 5661 5660 5658 5656 5654 5653 5651 5651 5649 5647 5645 5646 5645 5643 5639 5640 5641 5640 5639 5639 5639 5639 5639 5638 5637 5635
5665 5666 5667 5667 5668 5667 5667 5667 5666 5665 5663 5662 5661 5659 5658 5656 5654 5653 5653 5652 5650 5648 5647 5646 5644 5642 5640 5639 5638 5638 5637 5636 5634 5633 5632 5631 5631 5631 5631 5631 5631 5630 5629 5627
5660 5660 5661 5662 5662 5661 5660 5660 5659 5659 5657 5655 5653 5652 5651 5650 5648 5646 5645 5643 5641 5640 5639 5638 5633 5633 5633 5631 5628 5629 5629 5628 5627 5625 5624 5621 5622 5623 5622 5622 5622 5622 5620 5618
5654 5655 5655 5655 5655 5654 5653 5653 5653 5651 5650 5649 5647 5646 5644 5643 5641 5639 5638 5636 5635 5634 5632 5629 5627 5626 5625 5623 5620 5623 5622 5621 5619 5618 5617 5616 5615 5614 5612 5612 5612 5611 5610 5608
5647 5647 5647 5647 5647 5647 5647 5647 5645 5644 5643 5642 5640 5639 5637 5636 5635 5632 5630 5630 5628 5626 5624 5619 5620 5619 5618 5615 5613 5616 5615 5614 5612 5610 5609 5608 5606 5605 5604 5603 5602 5601 5599 5598
5640 5640 5640 5640 5640 5640 5641 5641 5639 5638 5636 5636 5635 5634 5632 5629 5628 5626 5624 5622 5621 5616 5617 5617 5616 5612 5610 5607 5610 5610 5609 5607 5605 5603 5602 5600 5599 5597 5596 5595 5593 5591 5590 5588
5633 5633 5633 5633 5633 5633 5633 5634 5633 5632 5630 5629 5628 5627 5626 5623 5623 5621 5619 5618 5616 5610 5610 5611 5607 5602 5599 5603 5604 5604 5603 5601 5598 5597 5595 5594 5592 5589 5588 5586 5585 5582 5580 5579
5626 5626 5627 5628 5628 5628 5627 5628 5627 5626 5625 5624 5623 5621 5619 5618 5617 5617 5616 5610 5606 5603 5606 5603 5598 5595 5593 5599 5600 5599 5597 5595 5593 5591 5589 5587 5586 5584 5581 5579 5578 5575 5572 5570
5620 5621 5622 5623 5623 5624 5624 5623 5622 5621 5621 5620 5619 5618 5617 5615 5612 5612 5609 5606 5602 5599 5601 5598 5593 5590 5593 5596 5596 5594 5592 5589 5587 5585 5584 5581 5579 5578 5576 5573 5571 5568 5565 5564
5614 5616 5618 5618 5619 5618 5619 5619 5618 5617 5617 5616 5615 5614 5612 5611 5608 5606 5603 5602 5599 5595 5596 5595 5593 5589 5592 5592 5590 5589 5587 5584 5582 5580 5578 5575 5573 5571 5569 5567 5564 5562 5559 5557
5609 5611 5610 5612 5613 5613 5614 5614 5613 5613 5612 5611 5609 5608 5607 5605 5603 5601 5599 5597 5595 5593 5593 5592 5590 5588 5588 5586 5584 5582 5581 5579 5576 5574 5572 5569 5567 5565 5564 5560 5559 5557 5554 5552